Flag for Moldova

Past Weather in Tiraspol, Moldova — Yesterday and Last 2 Weeks

Now
54 °F

Passing clouds.


Feels Like: 53 °F
Forecast: 73 / 53 °F
Wind: 3 mph from East

Location: Chisinau International Airport
Current Time: Oct 2, 2020 at 2:54:43 am
Latest Report: Oct 2, 2020 at 2:30 am
Visibility: N/A
Pressure29.77 "Hg
Humidity: 94%
Dew Point: 52 °F
Location of TiraspolLocation

Past Weather in Tiraspol — Graph

°F

Tiraspol Temperature Yesterday

Maximum temperature yesterday: 70 °F (at 2:00 pm)
Minimum temperature yesterday: 54 °F (at 2:00 am)
Average temperature yesterday: 60 °F

High & Low Weather Summary for the Past Weeks

 TemperatureHumidityPressure
High88 °F (Sep 17, 5:00 pm)100% (Sep 25, 5:30 am)30.27 "Hg (Sep 25, 5:30 am)
Low41 °F (Sep 23, 7:00 am)19% (Sep 22, 4:30 pm)29.50 "Hg (Sep 27, 1:00 am)
Average64 °F61%29.94 "Hg
* Reported Sep 17 1:00 am — Oct 2 1:30 am, Tiraspol. Weather by CustomWeather, © 2020

Note: Actual official high and low records may vary slightly from our data, if they occured in-between our weather recording intervals... More about our weather records

Tiraspol Weather History for the Previous 24 Hours

Scroll right to see more
 ConditionsComfort  
Time TempWeatherWind HumidityBarometerVisibility
1:30 am
Fri, Oct 2
55 °FClear.2 mph88%29.77 "Hg10 mi
1:00 am55 °FClear.3 mph88%29.77 "Hg10 mi
12:30 am57 °FClear.3 mph82%29.77 "Hg10 mi
12:00 am57 °FPassing clouds.6 mph82%29.77 "HgN/A
11:30 pm
Thu, Oct 1
59 °FMostly cloudy.6 mph77%29.77 "HgN/A
11:00 pm59 °FClear.No wind77%29.77 "Hg10 mi
10:30 pm57 °FOvercast.6 mph82%29.77 "HgN/A
10:00 pm57 °FClear.5 mph82%29.77 "Hg10 mi
9:30 pm59 °FClear.5 mph72%29.77 "Hg10 mi
9:00 pm61 °FClear.5 mph68%29.74 "Hg10 mi
8:30 pm59 °FClear.5 mph72%29.74 "Hg10 mi
8:00 pm61 °FClear.5 mph68%29.74 "Hg10 mi
7:30 pm61 °FClear.6 mph72%29.74 "Hg10 mi
7:00 pm63 °FClear.6 mph64%29.74 "Hg10 mi
6:30 pm64 °FSunny.6 mph60%29.74 "Hg10 mi
6:00 pm64 °FSunny.6 mph64%29.71 "Hg10 mi
5:30 pm66 °FSunny.7 mph56%29.71 "Hg10 mi
5:00 pm66 °FPartly sunny.9 mph56%29.71 "HgN/A
4:30 pm66 °FMostly cloudy.7 mph60%29.71 "HgN/A
4:00 pm66 °FSunny.10 mph60%29.71 "Hg10 mi
3:30 pm66 °FSunny.12 mph52%29.71 "Hg10 mi
3:00 pm70 °FPassing clouds.10 mph46%29.68 "HgN/A
2:30 pm70 °FPassing clouds.12 mph46%29.68 "HgN/A
2:00 pm70 °FPassing clouds.10 mph50%29.68 "HgN/A
1:30 pm68 °FPassing clouds.8 mph49%29.68 "HgN/A
1:00 pm68 °FPassing clouds.8 mph53%29.68 "HgN/A
12:30 pm66 °FPassing clouds.8 mph56%29.71 "HgN/A
12:00 pm64 °FSunny.2 mph60%29.71 "Hg10 mi
11:30 am63 °FPassing clouds.5 mph68%29.68 "HgN/A
11:00 am61 °FSunny.8 mph68%29.68 "Hg10 mi
10:30 am59 °FPassing clouds.5 mph72%29.68 "HgN/A
10:00 am59 °FSunny.6 mph72%29.68 "Hg10 mi
9:30 am57 °FSunny.3 mph77%29.68 "Hg10 mi
9:00 am55 °FSunny.5 mph82%29.68 "Hg10 mi
8:30 am55 °FSunny.3 mph82%29.68 "Hg10 mi
8:00 am54 °FSunny.3 mph88%29.68 "Hg10 mi
7:30 am54 °FSunny.5 mph88%29.68 "Hg10 mi
7:00 am54 °FClear.3 mph82%29.65 "Hg10 mi
6:30 am54 °FClear.5 mph82%29.65 "Hg10 mi
6:00 am54 °FClear.7 mph82%29.65 "Hg10 mi
5:30 am54 °FClear.7 mph82%29.65 "Hg10 mi
5:00 am54 °FClear.8 mph82%29.65 "Hg10 mi
4:30 am54 °FClear.No wind82%29.65 "Hg10 mi
4:00 am54 °FClear.2 mph82%29.65 "Hg10 mi
3:30 am54 °FClear.2 mph82%29.65 "Hg10 mi
3:00 am54 °FClear.5 mph82%29.65 "Hg10 mi
2:30 am54 °FClear.6 mph88%29.65 "Hg10 mi
2:00 am54 °FClear.7 mph82%29.62 "Hg10 mi
Weather by CustomWeather, © 2020

See weather overview